Location: Newark
(49.8969°N, 3.3422°E)
Time: 15:11:15
(UTC+00:00)

Tiros 1 - Pass Details

Date: 16 May 2021
Orbit: 630 x 664 km, 48.4° (Epoch: 11 June)

Event Time Altitude Azimuth Distance (km) Brightness Sun altitude
Exits shadow 00:39:51 45° 214° (SW) 900 7.4 -19.9°
Maximum altitude 00:41:00 58° 163° (SSE) 768 7.2 -19.8°
Drops below altitude 10° 00:45:41 10° 85° (E) 2,067 10.0 -19.6°
Sets 00:48:02 0° 82° (E) 2,974 10.9 -19.5°
